Regional Weather Roundup
Issued by NWS

Home | Current Version | Previous Version | Graphics & Text | Print | Product List | Glossary On
Versions: 1 2 3 4 5 6 7 8 9 10 11 12 13 14 15 16 17 18 19 20 21 22 23 24 25 26 27 28 29 30 31 32 33 34 35 36 37 38 39 40 41 42 43 44 45 46 47 48 49 50
000
ASUS43 KMPX 272301
RWRMN
WEATHER ROUNDUP FOR MINNESOTA
NATIONAL WEATHER SERVICE TWIN CITIES/CHANHASSEN MN
500 PM CST SAT DEC 27 2014


NOTE: "FAIR" INDICATES FEW OR NO CLOUDS BELOW 12,000 FEET WITH NO
SIGNIFICANT WEATHER AND/OR OBSTRUCTIONS TO VISIBILITY. N/A MEANS
CURRENT SKY AND/OR WEATHER CONDITIONS ARE NOT AVAILABLE.

MNZ060>063-068>070-280000-
   Twin Cities Metro

CITY           SKY/WX    TMP DP  RH WIND       PRES   REMARKS
TWIN CITIES    CLEAR     18  10  71 SW10      30.11R WCI   6
ST PAUL        CLEAR     21  10  62 SW8       30.12R WCI  11
CRYSTAL        CLEAR     20   9  62 SW9       30.08S WCI   9
BLAINE         CLEAR     21  12  68 SW6       30.08R WCI  14
LAKEVILLE      CLEAR     12   7  79 W6        30.12R WCI   3
EDEN PRAIRIE   CLEAR     14   6  70 SW8       30.11R WCI   3
SOUTH ST PAUL  CLEAR     20  12  72 W10       30.11R WCI   8
LAKE ELMO      FAIR      21  14  73 W6        30.09R WCI  14
$$
MNZ001>005-007-008-013>017-022>024-027-028-280000-
   Northwest Minnesota

CITY           SKY/WX    TMP DP  RH WIND       PRES   REMARKS
BEMIDJI        FLURRIES  15  10  81 W8        29.99S WCI   4
HALLOCK        LGT SNOW  16  12  86 N8        30.03R WCI   5
ROSEAU         LGT SNOW  16  10  79 W6        29.99S WCI   7
WARROAD        LGT SNOW  14  10  85 W7        29.99R WCI   4
THIEF RVR FALL CLOUDY    16  10  79 SW5       30.01S WCI   9
CROOKSTON      MIX PCPN  18  14  86 SW3       30.03S
FOSSTON        FLURRIES  16  12  86 SW8       30.01S WCI   5
DETROIT LAKES  CLOUDY    19  18  93 CALM      30.02F
MOORHEAD       CLOUDY    25  21  86 SW5       30.04S WCI  19
PARK RAPIDS    CLOUDY    19  12  74 W12       30.00R WCI   7
MAHNOMEN       CLOUDY    18  14  86 SW5       30.01F WCI  11
$$
MNZ006-009>011-018-025>026-280000-
   North Central Minnesota

CITY           SKY/WX    TMP DP  RH WIND       PRES   REMARKS
BAUDETTE       LGT SNOW  14   8  77 SW8       29.97R WCI   3
FLAG ISLAND    CLOUDY    12   7  79 W12       29.97R WCI  -2
INTL FALLS     PTCLDY    12   5  73 W8        29.96S WCI   0
WASKISH        PTCLDY    14  10  85 CALM      29.99S
BIG FORK       CLOUDY    18   5  57 W7        29.98S WCI   8
LONGVILLE      CLOUDY    21   7  53 W7        29.99R WCI  13
GRAND RAPIDS   CLOUDY    19   1  45 W5        29.96S WCI  13
CRANE LAKE     CLOUDY    16   7  67 CALM      29.97S
ORR            CLOUDY    18   3  53 W10       29.94R WCI   6
COOK           CLOUDY    18   7  62 W8        29.95S WCI   7
WALKER         CLOUDY    18  10  70 W8        29.99R WCI   8
$$
MNZ012-019>021-037-280000-
   Northeast Minnesota

CITY           SKY/WX    TMP DP  RH WIND       PRES   REMARKS
DULUTH         PTCLDY    20   4  50 W5        29.95R WCI  13
ELY            CLOUDY    16   7  67 SW3       29.93F
HIBBING        CLOUDY    20   4  50 W5        29.96S WCI  13
EVELETH        MOCLDY    21   9  58 SW6       29.96F WCI  14
DULUTH HARBOR  PTCLDY    27  10  50 W10       30.02R WCI  17
TWO HARBORS    CLOUDY    23  10  58 W7        29.95R WCI  15
SILVER BAY     MOCLDY    19   9  63 CALM      29.95R
GRAND MARAIS     N/A     17   8  67 VRB5      29.97S WCI  10
G MARAIS ARPRT CLEAR      7   1  78 W7        29.88R WCI  -5
$$
MNZ029>031-032-039>041-046>048-054>057-064-280000-
   West Central Minnesota

CITY           SKY/WX    TMP DP  RH WIND       PRES   REMARKS
FERGUS FALLS   CLOUDY    21  16  79 W8        30.07S WCI  12
WHEATON        CLEAR     21  16  79 W6        30.09R WCI  14
MORRIS         CLEAR     18  16  93 S5        30.06S WCI  11
ALEXANDRIA     CLEAR     17  12  80 SW8       30.04S WCI   7
ELBOW LAKE     FAIR      20  18  88 W8        30.05R WCI  11
WADENA         CLEAR     16  12  86 W5        30.02R WCI   9
GLENWOOD       MOCLDY    16  10  79 SW9       30.06S WCI   4
APPLETON       CLOUDY    21  16  79 SW7       30.09S WCI  13
BENSON         CLOUDY    19  16  86 W6        30.08S WCI  11
ORTONVILLE     CLEAR     19  12  73 W5        30.08S WCI  13
MADISON        PTCLDY    21  16  79 W10       30.10S WCI  10
WILLMAR        FAIR      14   9  79 W3        30.10S
$$
MNZ033>034-036-042>043-049>051-058-059-280000-
   Central Minnesota

CITY           SKY/WX    TMP DP  RH WIND       PRES   REMARKS
ST CLOUD       CLEAR     21   7  54 SW7       30.06S WCI  12
SAUK CENTRE    CLOUDY    17  11  78 SW7       30.06S WCI   7
PAYNESVILLE    PTCLDY    13   9  84 S8        30.08R WCI   2
AITKIN         CLOUDY    25   3  39 W5        29.99S WCI  19
PINE RIVER     CLOUDY    19  10  68 W5        30.04R WCI  13
BRAINERD       CLOUDY    22   4  46 W6        30.01S WCI  14
STAPLES        MOCLDY    18  12  79 W8        30.02R WCI   7
LONG PRAIRIE   CLOUDY    18  12  79 S9        30.04R WCI   6
LITTLE FALLS   CLOUDY    21  10  63 SW5       30.05R WCI  15
LITCHFIELD     CLEAR     16  10  79 CALM      30.09S
BUFFALO        CLEAR     15   8  75 S7        30.10S WCI   5
MAPLE LAKE     CLEAR     17  10  74 SW6       30.09R WCI   9
$$
MNZ037-044-045-052-053-280000-
   East Central Minnesota

CITY           SKY/WX    TMP DP  RH WIND       PRES   REMARKS
PRINCETON      CLEAR     21   9  58 SW5       30.05S WCI  15
MORA           PTCLDY    21   9  58 SW6       30.05R WCI  14
CAMBRIDGE      CLEAR     23   9  54 CALM      30.04S
RUSH CITY      CLEAR     20  10  64 SW3       30.05R
MOOSE LAKE     CLOUDY    23   9  54 SW6       29.99S WCI  16
HINCKLEY       MOCLDY    23  10  58 CALM      30.02S
CLOQUET        CLOUDY    21   3  45 W5        29.97F WCI  15
MCGREGOR       PTCLDY    23   9  54 SW5       29.99S WCI  17
$$
MNZ071>073-080-081-089-090-097-098-280000-
   Southwest Minnesota

CITY           SKY/WX    TMP DP  RH WIND       PRES   REMARKS
MONTEVIDEO     MOCLDY    19  16  86 W5        30.11S WCI  13
GRANITE FALLS  CLEAR     17  12  81 SW6       30.12S WCI   8
CANBY          CLEAR     18  13  79 SW6       30.10S WCI  10
MARSHALL       CLEAR     18   9  68 SW16      30.09F WCI   3
REDWOOD FALLS  CLEAR     15   9  76 SW9       30.11F WCI   3
OLIVIA         CLEAR     14  10  85 SW6       30.10S WCI   5
PIPESTONE      CLEAR      7   3  85 W7        30.10S WCI  -5
WINDOM         CLEAR     12   9  85 SW6       30.12S WCI   3
WORTHINGTON    CLEAR     12 -29  14 SW8       30.14R WCI   1
JACKSON        CLEAR     18  10  73 W7        30.13R WCI   8
TRACY          CLEAR     15  10  81 SW13      30.11S WCI   1
SLAYTON        CLEAR     10   6  84 CALM      30.11S
$$
MNZ065>067-074>077-082>085-091>093-280000-
   South Central Minnesota

CITY           SKY/WX    TMP DP  RH WIND       PRES   REMARKS
MANKATO        CLEAR     14   1  57 SW3       30.13S
NEW ULM        CLEAR      9   3  78 SW5       30.13R WCI   0
ST JAMES       CLEAR     16  10  79 SW6       30.15S WCI   7
FAIRMONT       CLEAR     16   7  67 W8        30.14R WCI   5
GLENCOE        CLEAR     12   8  83 SW5       30.11R WCI   4
FARIBAULT      CLEAR     14   7  73 W5        30.13R WCI   6
OWATONNA       CLEAR     12   7  79 SW6       30.13R WCI   3
ALBERT LEA     CLEAR     14   7  73 W6        30.13S WCI   5
$$
MNZ078>079-086>088-094>096-280000-
   Southeast Minnesota

CITY           SKY/WX    TMP DP  RH WIND       PRES   REMARKS
ROCHESTER      CLEAR     13  10  88 W10       30.11R WCI   0
RED WING       CLEAR     21  16  79 W9        30.11R WCI  11
STANTON        CLEAR     17  10  73 SW7       30.11R WCI   7
DODGE CENTER   PTCLDY    14  12  92 W12       30.10R WCI   0
WINONA         CLOUDY    27  21  80 W5        30.13R WCI  21
AUSTIN         CLEAR     16   9  73 W8        30.12S WCI   5
PRESTON        MOCLDY    16  13  87 W10       30.12R WCI   4
$$
ABBREVIATIONS USED IN REMARKS
   TC - TEMPERATURES IN CELSIUS
  WCI - WIND CHILL INDEX
   HX - HEAT INDEX
  VSB - VISIBILITY
$$



USA.gov is the U.S. government's official web portal to all federal, state and local government web resources and services.